AirNav   Air Wisconsin pilot careers
 
 1179 users online  

UT83 Thunder Ridge Airpark
Fruitland, Utah, USA

GOING TO FRUITLAND?


FAA INFORMATION EFFECTIVE 19 JULY 2018

Location

FAA Identifier: UT83
Lat/Long: 40-15-28.1500N / 110-51-31.0000W
40-15.469167N / 110-51.516667W
40.2578194 / -110.8586111
(estimated)
Elevation: 7050 ft. / 2149 m (estimated)
From city: 3 miles SE of FRUITLAND, UT
Time zone: UTC -6 (UTC -7 during Standard Time)
Zip code: 84051

Airport Operations

Airport use: Private use. Permission required prior to landing
Activation date: 05/2006
Control tower: no
ARTCC: SALT LAKE CITY CENTER
FSS: CEDAR CITY FLIGHT SERVICE STATION
Attendance: UNATNDD
Wind indicator: yes
Segmented circle: no

Nearby radio navigation aids

VOR radial/distance  VOR name  Freq  Var
MTUr267/34.2MYTON VOR/DME112.7014E
PUCr339/39.6CARBON VOR/DME115.5014E
PVUr071/39.6PROVO VOR/DME108.4015E

Airport Services

Runway Information

Runway 13/31

Dimensions: 4000 x 48 ft. / 1219 x 15 m
Surface: asphalt
RUNWAY 13  RUNWAY 31
Traffic pattern: leftleft
Displaced threshold: 175 ft.no

Airport Ownership and Management from official FAA records

Ownership: Privately-owned
Owner: THUNDER RIDGE AIRPARK, LLC
357W 910S, UNIT A
HEBER CITY, UT 84032
Phone 435-654-1867
Manager: TRACY LIVINGSTON
357W 910S, UNIT A
HEBER CITY, UT 84032
Phone 435-654-1867

Airport Operational Statistics

Aircraft based on the field: 50
Single engine airplanes: 50
    

Additional Remarks

WILDLIFE ON RY, RY 31 NOT RECOMMENDED FOR DEP, RY 13 NOT RECOMMENDED FOR LND DUE TO RISING TRRN.
OWNER DESIRES CHARTING.

Instrument Procedures

There are no published instrument procedures at UT83.

Some nearby airports with instrument procedures:

U69 - Duchesne Municipal Airport (22 nm E)
KHCR - Heber City Municipal Airport - Russ McDonald Field (29 nm NW)
74V - Roosevelt Municipal Airport (37 nm E)
KPUC - Carbon County Regional Airport/Buck Davis Field (39 nm S)
KPVU - Provo Municipal Airport (40 nm W)
 
Loc | Ops | Rwys | IFR | FBO | Links
Com | Nav | Svcs | Stats | Notes

TAC Air
 
Area around UT83 (Thunder Ridge Airpark)
 
Road maps at: MapQuest Bing Google
 
Aerial photo
WARNING: Photo may not be current or correct
Aerial photo of UT83 (Thunder Ridge Airpark)
Do you have a better or more recent aerial photo of Thunder Ridge Airpark that you would like to share? If so, please send us your photo.

 
Sectional chart

 
Airport distance calculator
Flying to Thunder Ridge Airpark? Find the distance to fly.

From to UT83

Sunrise and sunset
Times for 19-Jul-2018
 Local
(UTC-6)
 Zulu
(UTC)
Morning civil twilight05:3911:39
Sunrise06:1112:11
Sunset20:4902:49
Evening civil twilight21:2003:20

Current date and time
Zulu (UTC)  19-Jul-2018 22:43:23
Local (UTC-6)  19-Jul-2018 16:43:23
 
METAR
KHCR 
29nm NW 
192215Z AUTO 00000KT 10SM CLR 36/M05 A3011 RMK AO2
K74V 
37nm E 
192215Z AUTO 28015G19KT 10SM CLR 38/M02 A3005 RMK AO2
KPUC 
39nm S 
192153Z AUTO 32011G21KT 10SM CLR 34/04 A3013 RMK AO2 LTG DSNT SE SLP095 T03440044
KPVU 
39nm W 
192156Z 27005KT CLR 36/11 RMK AO2 SLPNO T03560106 $
TAF
KHCR 
29nm NW 
191728Z 1918/2018 VRB04KT P6SM SKC FM191900 24007KT P6SM FEW080 SCT150 FM200300 VRB04KT P6SM SCT200
NOTAMs
Click for the latest NOTAMs
NOTAMs are issued by the DoD/FAA and will open in a separate window not controlled by AirNav.

 

 
 

Would you like to see your business listed on this page?

 If your business provides an interesting product or service to pilots, flight crews, aircraft, or users of the Thunder Ridge Airpark, you should consider listing it here.  To start the listing process, click on the button below
 
Add a business
 

Other Pages about Thunder Ridge Airpark

www.thunderridgeairpark.com
 
Update a link
 
Copyright © AirNav, LLC. All rights reserved. Privacy Policy  Contact